{"data":{"norad_id":57606,"epoch":"2026-09-20T21:42:58.288320Z","epoch_age_seconds":92674,"freshness":"FRESH","line1":"1 57606U 23119E   26263.90484130  .00001185  00000+0  52618-4 0  9998","line2":"2 57606  43.0036  58.9731 0002277 310.3811  49.6842 15.27575782172945","mean_motion":15.27575782,"eccentricity":0.0002277,"inclination_deg":43.0036,"raan_deg":58.9731,"arg_perigee_deg":310.3811,"mean_anomaly_deg":49.6842,"bstar":5.2618e-5,"rev_number":17294,"period_min":94.267009006562,"perigee_km":481.49943132816,"apogee_km":484.62402122811,"semimajor_km":6861.1987262781,"source":"CELESTRAK","updated_at":"2026-09-21T09:00:33.640541Z"}}